FW6992 Weather Reports


Display with metric or nautical units.
time (UTC)temp
F
wind
direction
speed
MPH
gust
MPH
rain 1hr
in
rain 24hr
in
rain mn
in
humidity
%
barometer
mb
20260502170506 59 92 2.0 3.0 0.00 0.00 0.00 35 1015.0
20260502163949 57 153 2.0 4.0 0.00 0.00 0.00 42 1015.3
20260502163445 58 107 4.0 6.0 0.00 0.00 0.00 37 1015.4
20260502162943 59 204 4.0 4.0 0.00 0.00 0.00 37 1015.3
20260502162439 58 92 1.0 3.0 0.00 0.00 0.00 36 1015.2
20260502161937 58 209 2.0 3.0 0.00 0.00 0.00 36 1015.4
20260502161433 59 110 0.0 2.0 0.00 0.00 0.00 35 1015.3
20260502160931 59 344 2.0 3.0 0.00 0.00 0.00 40 1015.5
20260502160429 58 133 2.0 4.0 0.00 0.00 0.00 36 1015.4
20260502151907 58 150 2.0 4.0 0.00 0.00 0.00 39 1015.7
20260502151403 57 82 3.0 3.0 0.00 0.00 0.00 36 1015.7
20260502150901 58 162 0.0 3.0 0.00 0.00 0.00 37 1015.7
20260502150357 59 50 0.0 3.0 0.00 0.00 0.00 36 1015.5
20260502130745 53 144 2.0 2.0 0.00 0.00 0.00 47 1015.7
20260502130243 53 125 0.0 6.0 0.00 0.00 0.00 47 1015.7
20260502123729 52 77 0.0 4.0 0.00 0.00 0.00 49 1015.1
20260502123225 52 119 1.0 3.0 0.00 0.00 0.00 50 1015.1
20260502122722 52 153 0.0 2.0 0.00 0.00 0.00 51 1015.2
20260502122218 52 154 0.0 2.0 0.00 0.00 0.00 53 1015.2
20260502121717 52 143 1.0 3.0 0.00 0.00 0.00 55 1015.1
20260502121214 52 140 0.0 4.0 0.00 0.00 0.00 53 1015.1
20260502120710 52 161 0.0 2.0 0.00 0.00 0.00 53 1015.1
20260502120208 52 161 2.0 4.0 0.00 0.00 0.00 53 1015.2
20260502115705 52 181 1.0 2.0 0.00 0.00 0.00 55 1015.2
20260502115202 52 38 0.0 2.0 0.00 0.00 0.00 55 1015.0
20260502114657 51 220 0.0 2.0 0.00 0.00 0.00 58 1015.0
20260502114155 50 185 1.0 2.0 0.00 0.00 0.00 59 1014.9
20260502113652 50 110 0.0 0.0 0.00 0.00 0.00 57 1015.0
20260502113150 50 169 0.0 1.0 0.00 0.00 0.00 58 1015.0
20260502112648 50 143 0.0 1.0 0.00 0.00 0.00 59 1015.0
20260502112145 50 324 0.0 2.0 0.00 0.00 0.00 60 1015.1
20260502111642 49 304 0.0 0.0 0.00 0.00 0.00 65 1015.1
20260502111140 49 98 0.0 2.0 0.00 0.00 0.00 65 1014.9
20260502110638 49 110 0.0 2.0 0.00 0.00 0.00 66 1015.0
20260502110135 49 104 1.0 2.0 0.00 0.00 0.00 65 1015.0
20260502105632 49 103 1.0 1.0 0.00 0.00 0.00 63 1015.0
20260502105129 49 138 1.0 2.0 0.00 0.00 0.00 63 1015.0
20260502104626 49 181 0.0 1.0 0.00 0.00 0.00 64 1015.1
20260502104124 49 178 0.0 1.0 0.00 0.00 0.00 62 1015.0
20260502103621 49 146 0.0 1.0 0.00 0.00 0.00 63 1015.0
20260502103119 49 110 0.0 2.0 0.00 0.00 0.00 65 1014.8
20260502102615 50 131 0.0 2.0 0.00 0.00 0.00 66 1014.8
20260502102112 50 120 1.0 2.0 0.00 0.00 0.00 65 1014.8
20260502101610 49 144 0.0 1.0 0.00 0.00 0.00 63 1014.8
20260502101108 50 153 0.0 3.0 0.00 0.00 0.00 66 1014.8
20260502100607 49 214 0.0 1.0 0.00 0.00 0.00 66 1014.6
20260502100105 50 98 1.0 1.0 0.00 0.00 0.00 66 1014.5
20260502091038 50 256 0.0 1.0 0.00 0.00 0.00 66 1014.7
20260502090535 50 173 0.0 2.0 0.00 0.00 0.00 65 1014.6
20260502071430 51 124 0.0 1.0 0.00 0.00 0.00 69 1013.7
20260502070928 52 147 0.0 0.0 0.00 0.00 0.00 70 1013.8
20260502070426 52 151 0.0 2.0 0.00 0.00 0.00 69 1013.9
20260502065924 52 90 0.0 4.0 0.00 0.00 0.00 69 1013.7
20260502065422 52 89 0.0 1.0 0.00 0.00 0.00 70 1013.8
20260502064920 52 154 0.0 2.0 0.00 0.00 0.00 70 1014.1
20260502064417 52 267 0.0 2.0 0.00 0.00 0.00 70 1014.2
20260502063914 52 97 0.0 1.0 0.00 0.00 0.00 70 1014.1
20260502063412 52 168 0.0 1.0 0.00 0.00 0.00 69 1013.8
20260502062910 52 135 0.0 2.0 0.00 0.00 0.00 69 1013.9
20260502062407 52 164 2.0 2.0 0.00 0.00 0.00 69 1014.0
20260502061906 53 162 0.0 2.0 0.00 0.00 0.00 68 1014.1
20260502061403 53 230 0.0 1.0 0.00 0.00 0.00 68 1013.9
20260502060859 53 134 0.0 0.0 0.00 0.00 0.00 68 1014.0
20260502060359 53 233 0.0 0.0 0.00 0.00 0.00 67 1014.2
20260502055856 53 233 0.0 0.0 0.00 0.00 0.00 67 1014.0
20260502055354 53 178 0.0 1.0 0.00 0.00 0.00 69 1014.0
20260502054854 53 156 0.0 0.0 0.00 0.00 0.00 69 1014.0
20260502054350 53 205 0.0 0.0 0.00 0.00 0.00 69 1014.1
20260502053848 53 195 0.0 0.0 0.00 0.00 0.00 69 1014.1
20260502053345 54 145 0.0 1.0 0.00 0.00 0.00 69 1014.0
20260502052843 54 251 0.0 0.0 0.00 0.00 0.00 69 1014.2
20260502052341 54 204 1.0 1.0 0.00 0.00 0.00 68 1014.2
20260502051838 54 150 0.0 1.0 0.00 0.00 0.00 70 1014.2
20260502051337 54 207 0.0 1.0 0.00 0.00 0.00 69 1014.1
20260502050833 54 194 0.0 2.0 0.00 0.00 0.00 70 1013.9
20260502050329 54 149 0.0 0.0 0.00 0.00 0.00 70 1014.0
20260502045826 54 303 0.0 1.0 0.00 0.00 0.00 69 1013.9
20260502045323 54 194 0.0 0.0 0.00 0.00 0.00 70 1014.0
20260502044820 54 226 0.0 2.0 0.00 0.00 0.00 70 1013.9
20260502044316 55 201 0.0 1.0 0.00 0.00 0.00 71 1014.1
20260502043814 55 208 0.0 1.0 0.00 0.00 0.00 70 1013.8
20260502043311 55 239 0.0 1.0 0.00 0.00 0.00 71 1013.8
20260502042810 55 251 0.0 0.0 0.00 0.00 0.00 72 1013.6
20260502042308 55 251 0.0 0.0 0.00 0.00 0.00 73 1013.9
20260502041805 55 150 0.0 0.0 0.00 0.00 0.00 74 1013.9
20260502041303 55 277 0.0 1.0 0.00 0.00 0.00 75 1013.8
20260502040800 56 93 0.0 1.0 0.00 0.00 0.00 75 1013.7
20260502040256 56 218 0.0 0.0 0.00 0.00 0.00 75 1013.6
20260502035752 56 150 0.0 0.0 0.00 0.00 0.00 73 1013.6
20260502035249 57 263 0.0 1.0 0.00 0.00 0.00 71 1013.8
20260502034746 57 226 0.0 1.0 0.02 0.00 0.00 69 1013.5
20260502034245 57 262 0.0 1.0 0.02 0.00 0.00 64 1013.3
20260502033743 58 206 0.0 2.0 0.00 0.00 0.00 61 1013.1
20260502033240 58 182 2.0 2.0 0.00 0.00 0.00 58 1013.4
20260502032736 58 229 1.0 1.0 0.00 0.00 0.00 57 1013.8
20260502032232 58 336 0.0 2.0 0.00 0.00 0.00 55 1013.3
20260502031731 58 163 0.0 1.0 0.00 0.00 0.00 56 1013.2
20260502031228 58 226 0.0 2.0 0.00 0.00 0.00 56 1013.3
20260502030727 58 239 0.0 2.0 0.00 0.00 0.00 55 1013.2
20260502030225 57 314 0.0 1.0 0.00 0.00 0.00 56 1012.9
20260502025721 57 151 0.0 0.0 0.00 0.00 0.00 57 1013.0
20260502025219 57 305 1.0 1.0 0.00 0.00 0.00 56 1013.1
20260502024717 57 233 0.0 0.0 0.00 0.00 0.00 56 1013.0
20260502024215 57 238 0.0 2.0 0.00 0.00 0.00 56 1012.9
20260502023713 57 259 0.0 1.0 0.00 0.00 0.00 56 1012.7
20260502023210 57 231 0.0 2.0 0.00 0.00 0.00 57 1012.7
20260502022707 57 8 0.0 1.0 0.00 0.00 0.00 56 1012.6
20260502022203 57 198 2.0 2.0 0.00 0.00 0.00 56 1012.7
20260502021701 57 331 0.0 0.0 0.00 0.00 0.00 56 1012.6
20260502021158 57 347 0.0 2.0 0.00 0.00 0.00 56 1012.4
20260502020655 58 180 0.0 1.0 0.00 0.00 0.00 55 1012.5
20260502020152 58 251 0.0 1.0 0.00 0.00 0.00 54 1012.5
20260502015650 58 251 0.0 0.0 0.00 0.00 0.00 54 1012.8
20260502015146 58 14 0.0 0.0 0.00 0.00 0.00 54 1012.5
20260502014644 58 238 0.0 0.0 0.00 0.00 0.00 53 1012.5
20260502014140 58 58 0.0 1.0 0.00 0.00 0.00 52 1012.6
20260502013636 58 235 0.0 0.0 0.00 0.00 0.00 52 1012.6
20260502013132 58 238 0.0 0.0 0.00 0.00 0.00 52 1012.5
20260502012629 58 336 0.0 0.0 0.00 0.00 0.00 52 1012.6
20260502012128 58 238 0.0 1.0 0.00 0.00 0.00 51 1012.1
20260502011624 58 238 0.0 0.0 0.00 0.00 0.00 50 1012.2
20260502011120 58 250 0.0 0.0 0.00 0.00 0.00 50 1012.1
20260502010618 59 304 0.0 0.0 0.00 0.00 0.00 49 1012.2
20260502010114 59 343 0.0 1.0 0.00 0.00 0.00 49 1012.0
20260502005612 59 330 0.0 1.0 0.00 0.00 0.00 49 1011.9
20260502005109 59 336 0.0 0.0 0.00 0.00 0.00 47 1011.7
20260502004604 59 245 0.0 1.0 0.00 0.00 0.00 46 1011.8
20260502004101 60 181 0.0 0.0 0.00 0.00 0.00 46 1011.6
20260502003600 60 181 0.0 1.0 0.00 0.00 0.00 45 1011.6
20260502003056 60 233 0.0 0.0 0.00 0.00 0.00 44 1011.4
20260502002552 61 314 0.0 0.0 0.00 0.00 0.00 45 1011.2
20260502002050 61 238 0.0 0.0 0.00 0.00 0.00 43 1011.3
20260502001548 61 87 0.0 0.0 0.00 0.00 0.00 43 1011.3
20260502001044 62 343 0.0 0.0 0.00 0.00 0.00 42 1011.0
20260502000543 62 102 0.0 2.0 0.00 0.00 0.00 43 1011.0
20260502000040 62 245 0.0 2.0 0.00 0.00 0.00 41 1011.1
20260501235535 62 79 2.0 2.0 0.00 0.00 0.00 41 1011.0
20260501235031 63 65 1.0 1.0 0.00 0.00 0.00 41 1011.1
20260501234527 63 44 2.0 3.0 0.00 0.00 0.00 38 1011.1
20260501234025 63 331 0.0 2.0 0.00 0.00 0.00 40 1011.4
20260501233523 63 94 2.0 2.0 0.00 0.00 0.00 40 1011.0
20260501233020 64 65 0.0 2.0 0.00 0.00 0.00 39 1011.1
20260501232516 64 267 0.0 5.0 0.00 0.00 0.00 38 1010.8
20260501232013 64 83 3.0 3.0 0.00 0.00 0.00 37 1011.1
20260501231511 64 190 0.0 6.0 0.00 0.00 0.00 39 1011.1
20260501231009 64 33 2.0 4.0 0.00 0.00 0.00 38 1010.9
20260501230508 64 347 1.0 4.0 0.00 0.00 0.00 37 1010.9
20260501230005 65 212 1.0 2.0 0.00 0.00 0.00 39 1011.0
20260501225503 65 219 0.0 5.0 0.00 0.00 0.00 36 1010.9
20260501224958 65 225 1.0 3.0 0.00 0.00 0.00 36 1010.7
20260501224456 65 36 0.0 3.0 0.00 0.00 0.00 36 1010.9
20260501223953 65 296 2.0 3.0 0.00 0.00 0.00 35 1011.1
20260501223449 66 290 0.0 2.0 0.00 0.00 0.00 37 1010.9
20260501222944 66 52 0.0 1.0 0.00 0.00 0.00 35 1011.2
20260501222442 66 194 2.0 2.0 0.00 0.00 0.00 35 1011.0
20260501221938 66 163 0.0 5.0 0.00 0.00 0.00 35 1011.1
20260501221436 66 299 2.0 5.0 0.00 0.00 0.00 31 1011.1
20260501220933 67 86 2.0 4.0 0.00 0.00 0.00 34 1011.3
20260501220431 68 278 0.0 3.0 0.00 0.00 0.00 31 1011.3
20260501215926 68 87 3.0 5.0 0.00 0.00 0.00 32 1011.1
20260501215424 67 296 6.0 7.0 0.00 0.00 0.00 30 1011.3
20260501214919 67 274 0.0 3.0 0.00 0.00 0.00 33 1011.2
20260501214414 67 198 0.0 5.0 0.00 0.00 0.00 31 1011.5
20260501213910 68 41 2.0 2.0 0.00 0.00 0.00 31 1011.4
20260501213407 68 304 2.0 3.0 0.00 0.00 0.00 32 1011.1
20260501212902 68 248 0.0 3.0 0.00 0.00 0.00 33 1011.3
20260501212400 68 227 1.0 4.0 0.00 0.00 0.00 32 1011.7
20260501211857 68 342 0.0 2.0 0.00 0.00 0.00 31 1011.5
20260501211354 69 217 1.0 3.0 0.00 0.00 0.00 33 1011.7
20260501210852 69 303 2.0 2.0 0.00 0.00 0.00 30 1011.6
20260501210348 69 157 2.0 4.0 0.00 0.00 0.00 29 1011.5
20260501205844 69 307 2.0 3.0 0.00 0.00 0.00 31 1011.7
20260501205342 69 155 2.0 4.0 0.00 0.00 0.00 30 1011.7
20260501204838 69 300 3.0 3.0 0.00 0.00 0.00 28 1012.0
20260501204335 70 358 2.0 4.0 0.00 0.00 0.00 26 1012.0
20260501203831 71 304 1.0 2.0 0.00 0.00 0.00 28 1012.1
20260501203328 71 357 0.0 2.0 0.00 0.00 0.00 27 1012.0
20260501202825 71 309 2.0 3.0 0.00 0.00 0.00 28 1012.0
20260501202322 69 304 0.0 5.0 0.00 0.00 0.00 30 1012.1
20260501201819 69 121 0.0 4.0 0.00 0.00 0.00 29 1012.2
20260501201316 69 134 3.0 3.0 0.00 0.00 0.00 32 1012.1
20260501200812 69 180 3.0 10.0 0.00 0.00 0.00 34 1012.1
20260501200309 68 96 3.0 3.0 0.00 0.00 0.00 38 1012.0
20260501195807 69 203 3.0 4.0 0.00 0.00 0.00 36 1012.2
20260501195305 69 274 0.0 3.0 0.00 0.00 0.00 32 1012.5
20260501194759 69 72 2.0 3.0 0.00 0.00 0.00 36 1012.5
20260501194255 69 94 5.0 5.0 0.00 0.00 0.00 30 1012.6
20260501193751 70 19 1.0 4.0 0.00 0.00 0.00 30 1012.6
20260501193250 71 296 3.0 4.0 0.00 0.00 0.00 27 1012.7
20260501192747 70 182 1.0 4.0 0.00 0.00 0.00 32 1012.9
20260501192244 69 65 0.0 4.0 0.00 0.00 0.00 27 1013.1
20260501191741 70 161 1.0 6.0 0.00 0.00 0.00 30 1013.1
20260501191238 71 74 1.0 3.0 0.00 0.00 0.00 28 1013.0
20260501190735 68 138 2.0 4.0 0.00 0.00 0.00 32 1013.3
20260501190230 69 115 3.0 4.0 0.00 0.00 0.00 28 1013.4
20260501185726 71 122 2.0 3.0 0.00 0.00 0.00 28 1013.6
20260501185222 69 328 2.0 4.0 0.00 0.00 0.00 28 1013.9
20260501184719 68 104 2.0 5.0 0.00 0.00 0.00 32 1013.6
20260501184214 68 322 3.0 6.0 0.00 0.00 0.00 29 1013.9
20260501183710 70 218 1.0 3.0 0.00 0.00 0.00 31 1014.1
20260501183208 69 9 0.0 3.0 0.00 0.00 0.00 33 1014.0
20260501182704 68 85 2.0 6.0 0.00 0.00 0.00 29 1014.3
20260501182200 69 323 1.0 3.0 0.00 0.00 0.00 29 1014.4
20260501181658 69 230 0.0 2.0 0.00 0.00 0.00 35 1014.4
20260501181155 68 101 4.0 5.0 0.00 0.00 0.00 30 1014.4
20260501180653 68 180 1.0 5.0 0.00 0.00 0.00 32 1014.5
20260501180148 68 62 1.0 5.0 0.00 0.00 0.00 33 1014.4